Flag for U.S.A. Weather past 2 weeks in Lubbock, Texas, U.S.A.

61 °F

Mostly cloudy.

Feels Like: 61 °F
Forecast: 57 / 71 °F
Wind: 23 mph from South

Location: Lubbock International Airport

Current Time: Nov 26, 2015 at 1:24:02 AM

Latest Report: Nov 25, 2015 at 11:53 PM

Visibility: 10 mi

Pressure: 29.88 "Hg (26.63 "Hg at 976m altitude)

Humidity: 81%

Dew point: 55 °F

Location of LubbockLocation

Historic Weather in Lubbock — Graph


Lubbock temperature yesterday

Maximum temperature yesterday: 72 °F (at 3:53 PM)
Minimum temperature yesterday: 44 °F (at 4:53 AM)
Average temperature yesterday: 57 °F

Past Weeks' High & Low Weather Summary

High73 °F (Nov 16, 1:53 PM)97% (Nov 15, 5:53 AM)30.45 "Hg (Nov 15, 5:53 AM)
Low27 °F (Nov 22, 3:53 AM)16% (Nov 11, 1:53 PM)29.36 "Hg (Nov 16, 6:53 PM)
Average49 °F59%29.97 "Hg
* Reported Nov 10 11:53 PM — Nov 25 11:53 PM, Lubbock, Weather by CustomWeather, © 2015

Note: Actual official high and low records may vary slightly from our data, if they occured in-between our weather recording intervals... More about our weather records


Lubbock weather history for previous 24 hours

Time TempWeatherWind HumidityBarometerVisibility
11:53 PM
Wed, Nov 25
61 °FMostly cloudy.23 mph81%29.88 "Hg10 mi
10:53 PM61 °FPassing clouds.21 mph81%29.89 "Hg10 mi
9:53 PM62 °FOvercast.22 mph75%29.89 "Hg10 mi
8:53 PM62 °FPassing clouds.22 mph73%29.88 "Hg10 mi
7:53 PM62 °FPassing clouds.16 mph73%29.88 "Hg10 mi
6:53 PM63 °FPassing clouds.14 mph68%29.85 "Hg10 mi
5:53 PM65 °FPassing clouds.15 mph63%29.83 "Hg10 mi
4:53 PM70 °FPartly sunny.16 mph47%29.81 "Hg10 mi
3:53 PM72 °FSunny.20 mph43%29.79 "Hg10 mi
2:53 PM71 °FScattered clouds.23 mph38%29.79 "Hg10 mi
1:53 PM70 °FScattered clouds.20 mph38%29.79 "Hg10 mi
12:53 PM68 °FScattered clouds.16 mph40%29.83 "Hg10 mi
11:53 AM62 °FPartly sunny.15 mph52%29.87 "Hg10 mi
10:53 AM58 °FPartly sunny.13 mph65%29.89 "Hg8 mi
9:53 AM53 °FScattered clouds.10 mph77%29.90 "Hg6 mi
9:02 AM49 °FFog.13 mph86%29.96 "Hg5 mi
8:53 AM50 °FFog.14 mph86%29.88 "Hg5 mi
7:53 AM48 °FFog.10 mph93%29.88 "Hg3 mi
6:53 AM48 °FFog.14 mph93%29.85 "Hg5 mi
5:53 AM46 °FFog.10 mph96%29.84 "Hg5 mi
4:53 AM44 °FFog.10 mph96%29.83 "Hg5 mi
3:53 AM47 °FFog.N/A93%29.83 "Hg6 mi
2:53 AM47 °FLow clouds.10 mph93%29.83 "Hg8 mi
1:53 AM48 °FPassing clouds.10 mph89%29.83 "Hg10 mi
Weather by CustomWeather, © 2015

See weather overviewHow to use our weather pages